EW9842 Weather Reports


time (UTC)temp
F
wind
direction
speed
knots
gust
knots
rain 1hr
in
rain 24hr
in
rain mn
in
humidity
%
barometer
mb
20260906051535 50 172 1.7 4.3 0.00 0.13 0.11 96 1020.2
20260906050108 50 163 0.0 3.5 0.00 0.13 0.11 96 1020.2
20260906041536 51 140 0.9 4.3 0.00 0.13 0.11 96 1020.3
20260906040034 51 138 0.9 3.5 0.00 0.13 0.11 95 1020.3
20260906033033 51 157 2.6 6.1 0.00 0.13 0.11 94 1020.0
20260906031609 52 159 0.9 3.5 0.00 0.13 0.11 93 1019.9
20260906030035 53 155 0.0 3.5 0.00 0.13 0.11 93 1019.8
20260906024537 54 151 0.9 3.5 0.00 0.13 0.11 92 1019.8
20260906021609 55 123 0.9 2.6 0.00 0.13 0.11 87 1019.9
20260906014533 57 157 0.0 1.7 0.00 0.13 0.11 84 1019.8
20260906013031 58 157 0.0 1.7 0.00 0.13 0.11 81 1019.8
20260906011537 59 208 0.0 2.6 0.00 0.13 0.11 78 1020.0
20260906010141 62 211 0.0 1.7 0.00 0.13 0.11 75 1020.1
20260906004532 63 244 0.9 3.5 0.00 0.13 0.11 76 1020.3
20260906003032 62 267 0.9 4.3 0.00 0.13 0.11 79 1020.3
20260906001531 61 267 1.7 4.3 0.11 0.13 0.11 84 1020.3
20260906000032 59 140 0.9 6.1 0.11 0.13 0.11 89 1020.3
20260905234533 58 68 0.0 5.2 0.11 0.13 0.11 88 1020.2
20260905231529 60 216 0.0 2.6 0.00 0.02 0.00 76 1020.4
20260905230035 61 282 0.0 2.6 0.00 0.02 0.00 74 1020.4
20260905224535 62 277 1.7 7.0 0.00 0.02 0.00 79 1020.3
20260905223035 59 231 1.7 7.0 0.00 0.02 0.00 80 1020.3
20260905221534 61 193 2.6 5.2 0.00 0.02 0.00 74 1020.3
20260905220032 63 249 0.9 4.3 0.00 0.02 0.00 70 1020.1
20260905214536 63 287 1.7 5.2 0.00 0.02 0.00 69 1020.2
20260905213036 62 294 0.9 4.3 0.00 0.02 0.00 73 1020.2
20260905211533 61 254 0.9 2.6 0.00 0.02 0.00 73 1020.4
20260905210034 61 284 0.9 3.5 0.00 0.02 0.00 73 1020.5
20260905204534 61 296 0.0 2.6 0.00 0.02 0.00 74 1020.6
20260905203035 60 279 1.7 4.3 0.00 0.02 0.00 76 1020.6
20260905201535 59 357 0.0 2.6 0.00 0.02 0.00 78 1020.7
20260905200034 58 258 0.9 4.3 0.00 0.02 0.00 79 1020.8
20260905194645 58 255 0.9 4.3 0.00 0.02 0.00 79 1020.8
20260905193141 58 252 1.7 5.2 0.00 0.02 0.00 81 1020.8
20260905191533 58 253 1.7 4.3 0.00 0.02 0.00 82 1020.9
20260905190033 58 275 1.7 5.2 0.00 0.02 0.00 82 1021.0
20260905184534 57 265 0.0 3.5 0.00 0.02 0.00 82 1021.1
20260905183036 57 296 1.7 3.5 0.00 0.02 0.00 81 1021.1
20260905181610 58 304 2.6 5.2 0.00 0.02 0.00 81 1021.2
20260905180037 57 289 1.7 5.2 0.00 0.02 0.00 84 1021.3
20260905174534 57 298 1.7 4.3 0.00 0.02 0.00 88 1021.2
20260905170035 53 225 0.0 0.9 0.00 0.02 0.00 94 1021.1
20260905160152 51 135 0.0 0.0 0.00 0.02 0.00 98 1021.0
20260905154537 50 135 0.0 1.7 0.00 0.02 0.00 98 1021.0
20260905153034 50 137 0.0 1.7 0.00 0.02 0.00 99 1021.0
20260905151536 49 180 0.0 1.7 0.00 0.02 0.00 99 1020.8
20260905150033 48 164 0.0 1.7 0.00 0.02 0.00 99 1020.8
20260905144535 47 157 0.0 0.9 0.00 0.02 0.00 98 1020.8
20260905141533 46 138 0.0 3.5 0.00 0.02 0.00 98 1020.6
20260905140107 44 149 0.9 3.5 0.00 0.02 0.00 98 1020.4
20260905134535 44 157 0.9 1.7 0.00 0.02 0.00 98 1020.3
20260905133032 44 153 1.7 3.5 0.00 0.02 0.00 98 1020.2
20260905130035 45 164 1.7 3.5 0.00 0.02 0.00 98 1020.2
20260905124532 46 154 1.7 3.5 0.00 0.03 0.00 98 1020.2
20260905123035 46 135 1.7 3.5 0.00 0.03 0.00 98 1020.3
20260905121534 46 145 1.7 3.5 0.00 0.03 0.00 98 1020.3
20260905114533 47 137 1.7 2.6 0.00 0.03 0.00 98 1020.1
20260905113034 47 190 1.7 2.6 0.00 0.03 0.00 97 1020.0
20260905111532 48 155 0.9 1.7 0.00 0.03 0.00 97 1019.9
20260905110033 48 146 0.0 2.6 0.00 0.04 0.00 97 1020.0
20260905104530 48 111 0.0 0.0 0.00 0.04 0.00 97 1020.1
20260905103031 48 90 0.0 0.0 0.00 0.04 0.00 97 1020.0
20260905101532 49 206 0.0 1.7 0.00 0.04 0.00 97 1020.0
20260905094531 49 135 0.0 2.6 0.00 0.04 0.00 97 1020.1
20260905090037 49 162 0.9 2.6 0.00 0.04 0.00 97 1019.9
20260905083033 49 119 0.9 2.6 0.00 0.04 0.00 97 1019.8
20260905081641 49 160 0.9 3.5 0.00 0.04 0.00 97 1019.8
20260905074536 49 174 0.9 3.5 0.00 0.04 0.00 97 1019.6
20260905073033 49 142 1.7 4.3 0.00 0.04 0.00 96 1019.6
20260905071612 49 141 0.9 3.5 0.00 0.04 0.00 96 1019.4
20260905063152 51 160 0.9 3.5 0.02 0.04 0.04 95 1019.2
20260905061537 51 146 0.0 2.6 0.02 0.04 0.03 95 1019.2
20260905060037 51 143 0.0 1.7 0.01 0.03 0.02 95 1019.3
20260905054535 51 133 0.9 2.6 0.00 0.02 0.02 95 1019.4